GLOBAL-19 (55982 NORAD) Tracking and Keplerian Element Data

This shows tracking and keplerian element data for the satellite.

Feedback or suggestion? Click here.




ElementValue
Catalog55982
NameGLOBAL-19
Epoch Orbit658
Epoch Day126.11248346
Epoch Year2023
RAAN5.4338
Inclination42.0173
Eccentricity0.0007893
Argument of Perigee235.1477
Mean Anonmoly124.8621
Mean Motion15.39974558
Decay Rate0.00023301
L11 55982U 23041B 23126.11248346 .00023301 00000+0 57549-3 0 9993
L22 55982 42.0173 5.4338 0007893 235.1477 124.8621 15.39974558 6586



Live tracking and technical data element details for GLOBAL-19 (NORAD 55982). GLOBAL-19 can be tracked NOW for your location showing map with azimuth and elevation plus other details from your city location.







IsCatalogInMostPopularTable: catalog: 55982, numindb: 6
Update: records affected: 1



GetName: 55982 GLOBAL-19

Hit Count: updated at: Tue, 06 Jun 2023 03:53:23 GMT